| time (UTC) | temp F | wind direction | speed MPH | gust MPH | rain 1hr in | rain 24hr in | rain mn in | humidity % | barometer mb |
| 20260831130904 | 92 | 212 | 4.0 | 8.0 | 0.00 | 0.00 | 0.00 | 51 | 1018.0 |
| 20260831130404 | 91 | 216 | 2.0 | 9.0 | 0.00 | 0.00 | 0.00 | 52 | 1018.1 |
| 20260831125404 | 92 | 205 | 4.0 | 8.0 | 0.00 | 0.00 | 0.00 | 51 | 1018.1 |
| 20260831124904 | 92 | 224 | 3.0 | 7.0 | 0.00 | 0.00 | 0.00 | 51 | 1018.2 |
| 20260831124404 | 92 | 207 | 3.0 | 12.0 | 0.00 | 0.00 | 0.00 | 51 | 1018.2 |
| 20260831123904 | 91 | 213 | 3.0 | 12.0 | 0.00 | 0.00 | 0.00 | 52 | 1018.4 |
| 20260831123404 | 91 | 213 | 4.0 | 9.0 | 0.00 | 0.00 | 0.00 | 51 | 1018.4 |
| 20260831122903 | 91 | 226 | 2.0 | 10.0 | 0.00 | 0.00 | 0.00 | 53 | 1018.5 |
| 20260831121404 | 91 | 192 | 2.0 | 8.0 | 0.00 | 0.00 | 0.00 | 52 | 1018.7 |
| 20260831120904 | 91 | 206 | 5.0 | 8.0 | 0.00 | 0.00 | 0.00 | 53 | 1018.7 |
| 20260831115904 | 92 | 220 | 3.0 | 8.0 | 0.00 | 0.00 | 0.00 | 52 | 1018.8 |
| 20260831115404 | 91 | 204 | 2.0 | 7.0 | 0.00 | 0.00 | 0.00 | 53 | 1018.8 |
| 20260831114904 | 91 | 205 | 2.0 | 7.0 | 0.00 | 0.00 | 0.00 | 53 | 1018.9 |
| 20260831114404 | 91 | 210 | 2.0 | 8.0 | 0.00 | 0.00 | 0.00 | 54 | 1019.0 |
| 20260831113404 | 89 | 239 | 2.0 | 9.0 | 0.00 | 0.00 | 0.00 | 57 | 1019.0 |
| 20260831112903 | 89 | 228 | 5.0 | 12.0 | 0.00 | 0.00 | 0.00 | 57 | 1019.1 |
| 20260831112404 | 89 | 256 | 4.0 | 12.0 | 0.00 | 0.00 | 0.00 | 56 | 1019.1 |
| 20260831111904 | 90 | 262 | 3.0 | 12.0 | 0.00 | 0.00 | 0.00 | 56 | 1019.2 |
| 20260831111404 | 90 | 214 | 2.0 | 9.0 | 0.00 | 0.00 | 0.00 | 56 | 1019.2 |
| 20260831110904 | 90 | 192 | 3.0 | 9.0 | 0.00 | 0.00 | 0.00 | 57 | 1019.2 |
| 20260831110404 | 90 | 232 | 3.0 | 8.0 | 0.00 | 0.00 | 0.00 | 55 | 1019.2 |
| 20260831105904 | 90 | 240 | 3.0 | 8.0 | 0.00 | 0.00 | 0.00 | 56 | 1019.2 |
| 20260831105404 | 90 | 220 | 3.0 | 8.0 | 0.00 | 0.00 | 0.00 | 54 | 1019.3 |
| 20260831104904 | 90 | 225 | 3.0 | 9.0 | 0.00 | 0.00 | 0.00 | 55 | 1019.2 |
| 20260831104404 | 90 | 255 | 3.0 | 9.0 | 0.00 | 0.00 | 0.00 | 56 | 1019.4 |
| 20260831103903 | 89 | 223 | 4.0 | 8.0 | 0.00 | 0.00 | 0.00 | 54 | 1019.5 |
| 20260831103404 | 90 | 240 | 3.0 | 8.0 | 0.00 | 0.00 | 0.00 | 54 | 1019.5 |
| 20260831102903 | 90 | 214 | 3.0 | 7.0 | 0.00 | 0.00 | 0.00 | 54 | 1019.4 |
| 20260831102404 | 90 | 240 | 2.0 | 9.0 | 0.00 | 0.00 | 0.00 | 52 | 1019.5 |
| 20260831101904 | 91 | 237 | 3.0 | 9.0 | 0.00 | 0.00 | 0.00 | 52 | 1019.4 |
| 20260831101404 | 90 | 202 | 2.0 | 6.0 | 0.00 | 0.00 | 0.00 | 53 | 1019.6 |
| 20260831100904 | 90 | 243 | 1.0 | 7.0 | 0.00 | 0.00 | 0.00 | 54 | 1019.6 |
| 20260831095903 | 90 | 241 | 2.0 | 7.0 | 0.00 | 0.00 | 0.00 | 55 | 1019.7 |
| 20260831095403 | 90 | 202 | 1.0 | 7.0 | 0.00 | 0.00 | 0.00 | 55 | 1019.8 |
| 20260831094904 | 90 | 204 | 1.0 | 7.0 | 0.00 | 0.00 | 0.00 | 58 | 1019.8 |
| 20260831093404 | 88 | 225 | 2.0 | 7.0 | 0.00 | 0.00 | 0.00 | 64 | 1019.9 |
| 20260831092404 | 88 | 276 | 2.0 | 6.0 | 0.00 | 0.00 | 0.00 | 64 | 1019.9 |
| 20260831091904 | 88 | 236 | 1.0 | 8.0 | 0.00 | 0.00 | 0.00 | 65 | 1020.0 |
| 20260831091403 | 88 | 233 | 1.0 | 8.0 | 0.00 | 0.00 | 0.00 | 64 | 1020.1 |
| 20260831090404 | 88 | 247 | 3.0 | 7.0 | 0.00 | 0.00 | 0.00 | 63 | 1020.3 |
| 20260831085903 | 88 | 234 | 2.0 | 8.0 | 0.00 | 0.00 | 0.00 | 62 | 1020.2 |
| 20260831085403 | 88 | 209 | 3.0 | 8.0 | 0.00 | 0.00 | 0.00 | 60 | 1020.3 |
| 20260831084904 | 89 | 232 | 3.0 | 8.0 | 0.00 | 0.00 | 0.00 | 61 | 1020.3 |
| 20260831084404 | 88 | 212 | 2.0 | 6.0 | 0.00 | 0.00 | 0.00 | 58 | 1020.3 |
| 20260831083904 | 88 | 227 | 2.0 | 6.0 | 0.00 | 0.00 | 0.00 | 55 | 1020.3 |
| 20260831083404 | 88 | 223 | 1.0 | 6.0 | 0.00 | 0.00 | 0.00 | 56 | 1020.3 |
| 20260831082904 | 88 | 212 | 2.0 | 7.0 | 0.00 | 0.00 | 0.00 | 55 | 1020.3 |
| 20260831082404 | 88 | 202 | 3.0 | 7.0 | 0.00 | 0.00 | 0.00 | 56 | 1020.3 |
| 20260831081904 | 88 | 215 | 2.0 | 7.0 | 0.00 | 0.00 | 0.00 | 57 | 1020.2 |
| 20260831081403 | 88 | 238 | 1.0 | 7.0 | 0.00 | 0.00 | 0.00 | 57 | 1020.2 |
| 20260831080403 | 88 | 204 | 2.0 | 6.0 | 0.00 | 0.00 | 0.00 | 56 | 1020.2 |
| 20260831075903 | 88 | 212 | 2.0 | 6.0 | 0.00 | 0.00 | 0.00 | 56 | 1020.3 |
| 20260831075404 | 88 | 108 | 0.0 | 3.0 | 0.00 | 0.00 | 0.00 | 57 | 1020.2 |
| 20260831074903 | 88 | 219 | 1.0 | 3.0 | 0.00 | 0.00 | 0.00 | 58 | 1020.2 |
| 20260831074404 | 87 | 179 | 1.0 | 3.0 | 0.00 | 0.00 | 0.00 | 58 | 1020.3 |
| 20260831073904 | 87 | 214 | 1.0 | 3.0 | 0.00 | 0.00 | 0.00 | 59 | 1020.3 |
| 20260831073404 | 74 | 0 | 0.0 | 0.0 | 0.00 | 0.00 | 0.00 | 67 | 1020.2 |
| 20260831072904 | 74 | 0 | 0.0 | 0.0 | 0.00 | 0.00 | 0.00 | 67 | 1020.2 |
| 20260831072404 | 74 | 0 | 0.0 | 0.0 | 0.00 | 0.00 | 0.00 | 67 | 1020.0 |
| 20260831071904 | 74 | 0 | 0.0 | 0.0 | 0.00 | 0.00 | 0.00 | 67 | 1020.1 |
| 20260831071403 | 74 | 0 | 0.0 | 0.0 | 0.00 | 0.00 | 0.00 | 67 | 1020.2 |
| 20260831070904 | 74 | 0 | 0.0 | 0.0 | 0.00 | 0.00 | 0.00 | 67 | 1020.2 |
| 20260831065904 | 74 | 0 | 0.0 | 0.0 | 0.00 | 0.00 | 0.00 | 67 | 1020.2 |
| 20260831065404 | 74 | 0 | 0.0 | 0.0 | 0.00 | 0.00 | 0.00 | 67 | 1020.1 |
| 20260831064904 | 74 | 0 | 0.0 | 0.0 | 0.00 | 0.00 | 0.00 | 67 | 1020.1 |
| 20260831064404 | 74 | 0 | 0.0 | 0.0 | 0.00 | 0.00 | 0.00 | 67 | 1020.1 |
| 20260831063904 | 74 | 0 | 0.0 | 0.0 | 0.00 | 0.00 | 0.00 | 67 | 1020.1 |
| 20260831063404 | 74 | 0 | 0.0 | 0.0 | 0.00 | 0.00 | 0.00 | 67 | 1020.1 |
| 20260831062904 | 74 | 0 | 0.0 | 0.0 | 0.00 | 0.00 | 0.00 | 67 | 1020.1 |
| 20260831061904 | 74 | 0 | 0.0 | 0.0 | 0.00 | 0.00 | 0.00 | 67 | 1020.1 |
| 20260831060403 | 74 | 0 | 0.0 | 0.0 | 0.00 | 0.00 | 0.00 | 67 | 1020.1 |
| 20260831055404 | 74 | 0 | 0.0 | 0.0 | 0.00 | 0.00 | 0.00 | 67 | 1020.2 |
| 20260831054404 | 74 | 0 | 0.0 | 0.0 | 0.00 | 0.00 | 0.00 | 67 | 1020.1 |
| 20260831053904 | 74 | 0 | 0.0 | 0.0 | 0.00 | 0.00 | 0.00 | 67 | 1020.0 |
| 20260831052904 | 74 | 0 | 0.0 | 0.0 | 0.00 | 0.00 | 0.00 | 67 | 1019.8 |
| 20260831051404 | 74 | 0 | 0.0 | 0.0 | 0.00 | 0.00 | 0.00 | 67 | 1019.7 |
| 20260831050904 | 74 | 0 | 0.0 | 0.0 | 0.00 | 0.00 | 0.00 | 67 | 1019.7 |
| 20260831050404 | 74 | 0 | 0.0 | 0.0 | 0.00 | 0.00 | 0.00 | 67 | 1019.8 |
| 20260831045904 | 74 | 0 | 0.0 | 0.0 | 0.00 | 0.00 | 0.00 | 67 | 1019.6 |
| 20260831045404 | 74 | 0 | 0.0 | 0.0 | 0.00 | 0.00 | 0.00 | 67 | 1019.6 |
| 20260831044403 | 74 | 0 | 0.0 | 0.0 | 0.00 | 0.00 | 0.00 | 67 | 1019.6 |
| 20260831043903 | 74 | 0 | 0.0 | 0.0 | 0.00 | 0.00 | 0.00 | 67 | 1019.5 |
| 20260831043404 | 74 | 0 | 0.0 | 0.0 | 0.00 | 0.00 | 0.00 | 67 | 1019.5 |
| 20260831042904 | 74 | 0 | 0.0 | 0.0 | 0.00 | 0.00 | 0.00 | 67 | 1019.5 |
| 20260831042403 | 74 | 0 | 0.0 | 0.0 | 0.00 | 0.00 | 0.00 | 67 | 1019.5 |
| 20260831041904 | 74 | 0 | 0.0 | 0.0 | 0.00 | 0.00 | 0.00 | 67 | 1019.4 |
| 20260831041404 | 74 | 0 | 0.0 | 0.0 | 0.00 | 0.00 | 0.00 | 67 | 1019.4 |
| 20260831040404 | 74 | 0 | 0.0 | 0.0 | 0.00 | 0.00 | 0.00 | 67 | 1019.2 |
| 20260831035904 | 74 | 0 | 0.0 | 0.0 | 0.00 | 0.00 | 0.00 | 67 | 1019.3 |
| 20260831035404 | 74 | 0 | 0.0 | 0.0 | 0.00 | 0.00 | 0.00 | 67 | 1019.2 |
| 20260831034904 | 74 | 0 | 0.0 | 0.0 | 0.00 | 0.00 | 0.00 | 67 | 1019.2 |
| 20260831034404 | 74 | 0 | 0.0 | 0.0 | 0.00 | 0.00 | 0.00 | 67 | 1019.2 |
| 20260831033405 | 74 | 5 | 0.0 | 0.0 | 0.00 | 0.00 | 0.00 | 67 | 1019.3 |
| 20260831032403 | 74 | 44 | 0.0 | 0.0 | 0.00 | 0.00 | 0.00 | 67 | 1019.4 |
| 20260831031904 | 74 | 50 | 0.0 | 0.0 | 0.00 | 0.00 | 0.00 | 66 | 1019.4 |
| 20260831031404 | 74 | 50 | 0.0 | 0.0 | 0.00 | 0.00 | 0.00 | 67 | 1019.3 |
| 20260831030904 | 75 | 50 | 0.0 | 0.0 | 0.00 | 0.00 | 0.00 | 69 | 1019.3 |
| 20260831030403 | 75 | 50 | 0.0 | 0.0 | 0.00 | 0.00 | 0.00 | 67 | 1019.3 |
| 20260831025903 | 74 | 50 | 0.0 | 0.0 | 0.00 | 0.00 | 0.00 | 68 | 1019.4 |
| 20260831024904 | 74 | 50 | 0.0 | 0.0 | 0.00 | 0.00 | 0.00 | 72 | 1019.4 |
| 20260831024404 | 74 | 50 | 0.0 | 0.0 | 0.00 | 0.00 | 0.00 | 74 | 1019.4 |
| 20260831023904 | 74 | 50 | 0.0 | 0.0 | 0.00 | 0.00 | 0.00 | 74 | 1019.4 |
| 20260831023403 | 74 | 50 | 0.0 | 0.0 | 0.00 | 0.00 | 0.00 | 74 | 1019.4 |
| 20260831022903 | 74 | 50 | 0.0 | 0.0 | 0.00 | 0.00 | 0.00 | 75 | 1019.5 |
| 20260831022404 | 74 | 50 | 0.0 | 0.0 | 0.00 | 0.00 | 0.00 | 75 | 1019.5 |
| 20260831021404 | 74 | 50 | 0.0 | 0.0 | 0.00 | 0.00 | 0.00 | 75 | 1019.6 |
| 20260831020404 | 75 | 50 | 0.0 | 0.0 | 0.00 | 0.00 | 0.00 | 73 | 1019.7 |
| 20260831015903 | 75 | 50 | 0.0 | 0.0 | 0.00 | 0.00 | 0.00 | 73 | 1019.6 |
| 20260831015403 | 75 | 50 | 0.0 | 0.0 | 0.00 | 0.00 | 0.00 | 72 | 1019.6 |
| 20260831014904 | 75 | 50 | 0.0 | 0.0 | 0.00 | 0.00 | 0.00 | 72 | 1019.6 |
| 20260831014403 | 75 | 50 | 0.0 | 0.0 | 0.00 | 0.00 | 0.00 | 72 | 1019.6 |
| 20260831013904 | 75 | 50 | 0.0 | 0.0 | 0.00 | 0.00 | 0.00 | 73 | 1019.6 |
| 20260831013404 | 75 | 50 | 0.0 | 0.0 | 0.00 | 0.00 | 0.00 | 73 | 1019.5 |
| 20260831012903 | 75 | 50 | 0.0 | 0.0 | 0.00 | 0.00 | 0.00 | 73 | 1019.5 |
| 20260831012404 | 75 | 48 | 0.0 | 0.0 | 0.00 | 0.00 | 0.00 | 74 | 1019.5 |
| 20260831011904 | 75 | 42 | 0.0 | 0.0 | 0.00 | 0.00 | 0.00 | 75 | 1019.5 |
| 20260831011404 | 75 | 42 | 0.0 | 0.0 | 0.00 | 0.00 | 0.00 | 76 | 1019.5 |
| 20260831010404 | 74 | 40 | 0.0 | 0.0 | 0.00 | 0.00 | 0.00 | 79 | 1019.6 |
| 20260831005904 | 74 | 40 | 0.0 | 0.0 | 0.00 | 0.00 | 0.00 | 79 | 1019.6 |
| 20260831005404 | 74 | 40 | 0.0 | 0.0 | 0.00 | 0.00 | 0.00 | 79 | 1019.6 |
| 20260831004904 | 74 | 40 | 0.0 | 0.0 | 0.00 | 0.00 | 0.00 | 78 | 1019.6 |
| 20260831004404 | 75 | 40 | 0.0 | 0.0 | 0.00 | 0.00 | 0.00 | 78 | 1019.5 |
| 20260831003903 | 75 | 40 | 0.0 | 0.0 | 0.00 | 0.00 | 0.00 | 78 | 1019.5 |
| 20260831003404 | 75 | 40 | 0.0 | 0.0 | 0.00 | 0.00 | 0.00 | 78 | 1019.5 |
| 20260831002904 | 75 | 40 | 0.0 | 0.0 | 0.00 | 0.00 | 0.00 | 77 | 1019.5 |
| 20260831002404 | 76 | 40 | 0.0 | 0.0 | 0.00 | 0.00 | 0.00 | 77 | 1019.5 |
| 20260831001904 | 76 | 40 | 0.0 | 0.0 | 0.00 | 0.00 | 0.00 | 77 | 1019.5 |
| 20260831001403 | 75 | 40 | 0.0 | 0.0 | 0.00 | 0.00 | 0.00 | 77 | 1019.4 |
| 20260831000904 | 75 | 40 | 0.0 | 0.0 | 0.00 | 0.00 | 0.00 | 77 | 1019.4 |
| 20260830235904 | 75 | 36 | 0.0 | 0.0 | 0.00 | 0.00 | 0.00 | 78 | 1019.5 |
| 20260830235403 | 75 | 26 | 0.0 | 0.0 | 0.00 | 0.00 | 0.00 | 78 | 1019.6 |
| 20260830234904 | 75 | 26 | 0.0 | 0.0 | 0.00 | 0.00 | 0.00 | 79 | 1019.6 |
| 20260830234404 | 75 | 27 | 0.0 | 0.0 | 0.00 | 0.00 | 0.00 | 79 | 1019.5 |
| 20260830233904 | 75 | 8 | 0.0 | 1.0 | 0.00 | 0.00 | 0.00 | 79 | 1019.6 |
| 20260830233404 | 75 | 8 | 0.0 | 1.0 | 0.00 | 0.00 | 0.00 | 79 | 1019.6 |
| 20260830231904 | 75 | 352 | 0.0 | 1.0 | 0.00 | 0.00 | 0.00 | 80 | 1019.6 |
| 20260830231404 | 75 | 12 | 0.0 | 1.0 | 0.00 | 0.00 | 0.00 | 80 | 1019.7 |
| 20260830230904 | 75 | 348 | 0.0 | 1.0 | 0.00 | 0.00 | 0.00 | 81 | 1019.8 |
| 20260830230404 | 75 | 342 | 0.0 | 0.0 | 0.00 | 0.00 | 0.00 | 81 | 1019.7 |
| 20260830225904 | 74 | 342 | 0.0 | 0.0 | 0.00 | 0.00 | 0.00 | 80 | 1019.7 |
| 20260830222911 | 75 | 342 | 0.0 | 0.0 | 0.00 | 0.00 | 0.00 | 78 | 1019.6 |
| 20260830213922 | 76 | 302 | 0.0 | 1.0 | 0.00 | 0.00 | 0.00 | 76 | 1019.8 |
| 20260830210904 | 78 | 23 | 0.0 | 0.0 | 0.00 | 0.00 | 0.00 | 72 | 1019.6 |
| 20260830205905 | 79 | 23 | 0.0 | 1.0 | 0.00 | 0.00 | 0.00 | 69 | 1019.6 |
| 20260830205404 | 80 | 24 | 0.0 | 3.0 | 0.00 | 0.00 | 0.00 | 68 | 1019.6 |
| 20260830204904 | 80 | 15 | 0.0 | 6.0 | 0.00 | 0.00 | 0.00 | 68 | 1019.5 |
| 20260830204403 | 80 | 64 | 2.0 | 7.0 | 0.00 | 0.00 | 0.00 | 69 | 1019.5 |
| 20260830203904 | 80 | 53 | 2.0 | 7.0 | 0.00 | 0.00 | 0.00 | 69 | 1019.4 |
| 20260830202404 | 78 | 53 | 2.0 | 6.0 | 0.00 | 0.00 | 0.00 | 73 | 1019.4 |
| 20260830200404 | 77 | 34 | 2.0 | 3.0 | 0.00 | 0.00 | 0.00 | 79 | 1019.5 |
| 20260830195904 | 77 | 40 | 0.0 | 3.0 | 0.00 | 0.00 | 0.00 | 79 | 1019.5 |
| 20260830195404 | 77 | 65 | 1.0 | 3.0 | 0.00 | 0.00 | 0.00 | 79 | 1019.6 |
| 20260830194903 | 77 | 67 | 0.0 | 3.0 | 0.00 | 0.00 | 0.00 | 79 | 1019.6 |
| 20260830193904 | 77 | 53 | 0.0 | 3.0 | 0.00 | 0.00 | 0.00 | 79 | 1019.7 |
| 20260830193404 | 77 | 83 | 0.0 | 3.0 | 0.00 | 0.00 | 0.00 | 79 | 1019.6 |
| 20260830192904 | 77 | 77 | 0.0 | 1.0 | 0.00 | 0.00 | 0.00 | 79 | 1019.6 |
| 20260830192404 | 77 | 137 | 0.0 | 1.0 | 0.00 | 0.00 | 0.00 | 79 | 1019.6 |
| 20260830191904 | 77 | 121 | 0.0 | 2.0 | 0.00 | 0.00 | 0.00 | 79 | 1019.6 |
| 20260830191404 | 77 | 191 | 0.0 | 2.0 | 0.00 | 0.00 | 0.00 | 79 | 1019.6 |
| 20260830190904 | 77 | 151 | 0.0 | 3.0 | 0.00 | 0.00 | 0.00 | 79 | 1019.6 |
| 20260830190404 | 77 | 112 | 0.0 | 3.0 | 0.00 | 0.00 | 0.00 | 79 | 1019.5 |
| 20260830185903 | 77 | 193 | 0.0 | 1.0 | 0.00 | 0.00 | 0.00 | 78 | 1019.4 |
| 20260830185403 | 77 | 179 | 0.0 | 1.0 | 0.00 | 0.00 | 0.00 | 78 | 1019.4 |
| 20260830184404 | 78 | 158 | 0.0 | 2.0 | 0.00 | 0.00 | 0.00 | 78 | 1019.4 |
| 20260830183904 | 78 | 110 | 0.0 | 1.0 | 0.00 | 0.00 | 0.00 | 78 | 1019.3 |
| 20260830183404 | 77 | 146 | 0.0 | 1.0 | 0.00 | 0.00 | 0.00 | 78 | 1019.2 |
| 20260830182904 | 78 | 147 | 0.0 | 1.0 | 0.00 | 0.00 | 0.00 | 77 | 1019.1 |
| 20260830182403 | 78 | 203 | 0.0 | 0.0 | 0.00 | 0.00 | 0.00 | 77 | 1019.0 |
| 20260830181903 | 78 | 203 | 0.0 | 1.0 | 0.00 | 0.00 | 0.00 | 76 | 1019.0 |
| 20260830180904 | 78 | 205 | 0.0 | 1.0 | 0.00 | 0.00 | 0.00 | 76 | 1018.7 |
| 20260830180404 | 78 | 82 | 0.0 | 2.0 | 0.00 | 0.00 | 0.00 | 75 | 1018.7 |
| 20260830175904 | 79 | 82 | 0.0 | 5.0 | 0.00 | 0.00 | 0.00 | 75 | 1018.5 |
| 20260830175403 | 79 | 133 | 0.0 | 5.0 | 0.00 | 0.00 | 0.00 | 74 | 1018.5 |
| 20260830174903 | 79 | 173 | 0.0 | 5.0 | 0.00 | 0.00 | 0.00 | 74 | 1018.3 |
| 20260830173904 | 79 | 197 | 0.0 | 3.0 | 0.00 | 0.00 | 0.00 | 73 | 1018.1 |
| 20260830173404 | 79 | 178 | 0.0 | 3.0 | 0.00 | 0.00 | 0.00 | 73 | 1018.1 |
| 20260830172904 | 80 | 174 | 0.0 | 3.0 | 0.00 | 0.00 | 0.00 | 72 | 1018.0 |
| 20260830171903 | 80 | 212 | 0.0 | 3.0 | 0.00 | 0.00 | 0.00 | 71 | 1018.0 |
| 20260830171404 | 80 | 194 | 1.0 | 3.0 | 0.00 | 0.00 | 0.00 | 71 | 1017.9 |
| 20260830170904 | 81 | 160 | 0.0 | 2.0 | 0.00 | 0.00 | 0.00 | 71 | 1017.9 |
| 20260830170403 | 81 | 195 | 0.0 | 3.0 | 0.00 | 0.00 | 0.00 | 71 | 1017.7 |
| 20260830165904 | 81 | 177 | 0.0 | 3.0 | 0.00 | 0.00 | 0.00 | 70 | 1017.6 |
| 20260830164904 | 82 | 213 | 1.0 | 6.0 | 0.00 | 0.00 | 0.00 | 69 | 1017.8 |
| 20260830164403 | 82 | 218 | 2.0 | 6.0 | 0.00 | 0.00 | 0.00 | 69 | 1017.8 |
| 20260830163904 | 83 | 217 | 2.0 | 6.0 | 0.00 | 0.00 | 0.00 | 68 | 1017.7 |
| 20260830163404 | 84 | 199 | 1.0 | 5.0 | 0.00 | 0.00 | 0.00 | 67 | 1017.7 |
| 20260830162903 | 84 | 202 | 2.0 | 7.0 | 0.00 | 0.00 | 0.00 | 67 | 1017.6 |
| 20260830162404 | 85 | 223 | 1.0 | 7.0 | 0.00 | 0.00 | 0.00 | 66 | 1017.5 |
| 20260830161904 | 85 | 201 | 2.0 | 6.0 | 0.00 | 0.00 | 0.00 | 65 | 1017.5 |
| 20260830161404 | 86 | 211 | 2.0 | 6.0 | 0.00 | 0.00 | 0.00 | 64 | 1017.5 |
| 20260830160904 | 87 | 175 | 2.0 | 6.0 | 0.00 | 0.00 | 0.00 | 63 | 1017.4 |
| 20260830160404 | 87 | 157 | 1.0 | 5.0 | 0.00 | 0.00 | 0.00 | 63 | 1017.5 |
| 20260830155904 | 87 | 220 | 1.0 | 9.0 | 0.00 | 0.00 | 0.00 | 63 | 1017.4 |
| 20260830155404 | 87 | 220 | 2.0 | 9.0 | 0.00 | 0.00 | 0.00 | 62 | 1017.3 |
| 20260830154904 | 88 | 213 | 3.0 | 9.0 | 0.00 | 0.00 | 0.00 | 61 | 1017.3 |
| 20260830154404 | 88 | 219 | 2.0 | 7.0 | 0.00 | 0.00 | 0.00 | 61 | 1017.3 |
| 20260830153904 | 88 | 209 | 2.0 | 8.0 | 0.00 | 0.00 | 0.00 | 61 | 1017.4 |
| 20260830153403 | 88 | 207 | 2.0 | 8.0 | 0.00 | 0.00 | 0.00 | 60 | 1017.4 |
| 20260830152904 | 89 | 204 | 3.0 | 8.0 | 0.00 | 0.00 | 0.00 | 59 | 1017.4 |
| 20260830152403 | 89 | 202 | 4.0 | 8.0 | 0.00 | 0.00 | 0.00 | 58 | 1017.3 |
| 20260830151903 | 89 | 195 | 2.0 | 10.0 | 0.00 | 0.00 | 0.00 | 57 | 1017.3 |
| 20260830151404 | 89 | 221 | 2.0 | 10.0 | 0.00 | 0.00 | 0.00 | 58 | 1017.3 |
| 20260830150904 | 89 | 198 | 3.0 | 9.0 | 0.00 | 0.00 | 0.00 | 58 | 1017.3 |
| 20260830150404 | 90 | 211 | 3.0 | 10.0 | 0.00 | 0.00 | 0.00 | 56 | 1017.3 |
| 20260830145904 | 90 | 215 | 3.0 | 10.0 | 0.00 | 0.00 | 0.00 | 55 | 1017.4 |
| 20260830145404 | 90 | 204 | 5.0 | 10.0 | 0.00 | 0.00 | 0.00 | 54 | 1017.5 |
| 20260830144904 | 91 | 209 | 3.0 | 9.0 | 0.00 | 0.00 | 0.00 | 53 | 1017.5 |
| 20260830144404 | 91 | 208 | 4.0 | 9.0 | 0.00 | 0.00 | 0.00 | 53 | 1017.5 |
| 20260830143904 | 91 | 208 | 2.0 | 6.0 | 0.00 | 0.00 | 0.00 | 53 | 1017.5 |
| 20260830143404 | 92 | 214 | 3.0 | 6.0 | 0.00 | 0.00 | 0.00 | 52 | 1017.4 |
| 20260830142904 | 91 | 117 | 1.0 | 6.0 | 0.00 | 0.00 | 0.00 | 52 | 1017.5 |
| 20260830141904 | 91 | 213 | 3.0 | 7.0 | 0.00 | 0.00 | 0.00 | 52 | 1017.6 |
| 20260830141404 | 91 | 203 | 4.0 | 8.0 | 0.00 | 0.00 | 0.00 | 52 | 1017.6 |
| 20260830140904 | 91 | 215 | 2.0 | 8.0 | 0.00 | 0.00 | 0.00 | 53 | 1017.6 |
| 20260830140404 | 91 | 214 | 4.0 | 8.0 | 0.00 | 0.00 | 0.00 | 53 | 1017.6 |
| 20260830135403 | 91 | 205 | 3.0 | 8.0 | 0.00 | 0.00 | 0.00 | 54 | 1017.6 |
| 20260830134904 | 91 | 205 | 3.0 | 9.0 | 0.00 | 0.00 | 0.00 | 54 | 1017.6 |
| 20260830134404 | 91 | 210 | 3.0 | 9.0 | 0.00 | 0.00 | 0.00 | 54 | 1017.6 |
| 20260830133903 | 91 | 205 | 2.0 | 8.0 | 0.00 | 0.00 | 0.00 | 55 | 1017.7 |
| 20260830133404 | 91 | 215 | 2.0 | 8.0 | 0.00 | 0.00 | 0.00 | 55 | 1017.7 |
| 20260830132904 | 91 | 211 | 2.0 | 6.0 | 0.00 | 0.00 | 0.00 | 56 | 1017.7 |
| 20260830132404 | 91 | 200 | 4.0 | 6.0 | 0.00 | 0.00 | 0.00 | 56 | 1017.8 |
| 20260830131904 | 91 | 208 | 3.0 | 8.0 | 0.00 | 0.00 | 0.00 | 56 | 1017.8 |